Flag for U.S.A. Weather past 2 weeks in Daytona Beach, Florida, U.S.A.

Now
78 °F

Passing clouds.


Feels Like: 81 °F
Forecast: 76 / 88 °F
Wind: No wind

Location: Daytona Beach Regional Airport

Current Time: Sep 2, 2015 at 3:25:42 AM

Latest Report: Sep 2, 2015 at 2:53 AM


Visibility: 7 mi

Pressure: 30.06 "Hg

Humidity: 93%

Dew point: 76 °F

Location of Daytona BeachLocation

Historic Weather in Daytona Beach — Graph

°F

Daytona Beach temperature yesterday

Maximum temperature yesterday: 90 °F (at 2:53 PM)
Minimum temperature yesterday: 75 °F (at 4:53 AM)
Average temperature yesterday: 81 °F

Past Weeks' High & Low Weather Summary

 TemperatureHumidityPressure
High93 °F (Aug 25, 1:53 PM)100% (Aug 29, 4:53 AM)30.11 "Hg (Aug 29, 4:53 AM)
Low72 °F (Aug 27, 6:53 AM)49% (Aug 25, 1:53 PM)29.88 "Hg (Aug 25, 5:53 PM)
Average81 °F83%30.00 "Hg
* Reported Aug 18 1:53 AM — Sep 2 1:53 AM, Daytona Beach, Weather by CustomWeather, © 2015

Note: Actual official high and low records may vary slightly from our data, if they occured in-between our weather recording intervals... More about our weather records

Advertising

Daytona Beach weather history for previous 24 hours

 ConditionsComfort  
Time TempWeatherWind HumidityBarometerVisibility
1:53 AM
Wed, Sep 2
78 °FPassing clouds.No wind93%30.07 "Hg10 mi
12:53 AM78 °FPassing clouds.No wind96%30.08 "Hg9 mi
11:53 PM
Tue, Sep 1
79 °FPassing clouds.No wind94%30.08 "Hg10 mi
10:53 PM80 °FPassing clouds.3 mph90%30.08 "Hg10 mi
9:53 PM81 °FPassing clouds.No wind88%30.07 "Hg10 mi
8:53 PM81 °FPartly cloudy.3 mph91%30.06 "Hg10 mi
7:53 PM81 °FCloudy.No wind88%30.05 "Hg10 mi
7:03 PM82 °FLight rain. Broken clouds.No wind85%30.05 "Hg6 mi
6:57 PM83 °FLight rain. Broken clouds.6 mph82%30.05 "Hg10 mi
4:53 PM87 °FPartly sunny.9 mph72%30.04 "Hg10 mi
3:53 PM89 °FBroken clouds.6 mph59%30.05 "Hg10 mi
2:53 PM90 °FScattered clouds.7 mph61%30.06 "Hg10 mi
1:53 PM89 °FScattered clouds.6 mph61%30.07 "Hg10 mi
12:53 PM89 °FScattered clouds.6 mph63%30.09 "Hg10 mi
11:53 AM86 °FScattered clouds.7 mph70%30.09 "Hg10 mi
10:53 AM84 °FScattered clouds.6 mph77%30.10 "Hg10 mi
9:53 AM82 °FScattered clouds.6 mph85%30.09 "Hg10 mi
8:53 AM78 °FScattered clouds.6 mph93%30.09 "Hg9 mi
7:53 AM76 °FPassing clouds.3 mph97%30.08 "Hg8 mi
6:53 AM75 °FPassing clouds.3 mph96%30.05 "Hg10 mi
5:53 AM75 °FPassing clouds.No wind96%30.03 "Hg9 mi
4:53 AM75 °FPassing clouds.3 mph96%30.03 "Hg10 mi
3:53 AM76 °FPassing clouds.No wind97%30.03 "Hg10 mi
Weather by CustomWeather, © 2015

See weather overviewHow to use our weather pages